This is the latest recevied weather packets stored in our database for station/object WX4FUN-13. If no packets are shown the sender has not sent any weather packets the latest 1 day(s).
| Time | Temp. | Humidity | Pressure | Rain* | Wind** | Luminosity | Snow |
|---|---|---|---|---|---|---|---|
| 1778037262 | 17.78° C | 67% | 1010.5 hPa | 0 mm | 0.45 m/s, 302° | 0 W/m² | - |
| 1778036663 | 17.78° C | 66% | 1010.5 hPa | 0 mm | 0.45 m/s, 234° | 0 W/m² | - |
| 1778036063 | 17.78° C | 66% | 1010.5 hPa | 0 mm | 0.45 m/s, 230° | 0 W/m² | - |
| 1778035463 | 17.78° C | 66% | 1010.4 hPa | 0 mm | 0.45 m/s, 218° | 0 W/m² | - |
| 1778034864 | 17.78° C | 65% | 1010.3 hPa | 0 mm | 0.45 m/s, 290° | 0 W/m² | - |
| 1778034262 | 17.78° C | 65% | 1010.3 hPa | 0 mm | 0.45 m/s, 231° | 0 W/m² | - |
| 1778033664 | 17.78° C | 64% | 1010.2 hPa | 0 mm | 0.45 m/s, 221° | 0 W/m² | - |
| 1778033060 | 17.78° C | 64% | 1010.1 hPa | 0 mm | 0.89 m/s, 218° | 0 W/m² | - |
| 1778032460 | 18.33° C | 63% | 1010.2 hPa | 0 mm | 0.45 m/s, 247° | 0 W/m² | - |
| 1778031862 | 18.33° C | 63% | 1010.1 hPa | 0 mm | 0.45 m/s, 269° | 0 W/m² | - |
| 1778031260 | 18.33° C | 62% | 1010 hPa | 0 mm | 0.45 m/s, 258° | 0 W/m² | - |
| 1778030661 | 18.89° C | 62% | 1009.9 hPa | 0 mm | 0.89 m/s, 347° | 0 W/m² | - |
| 1778030059 | 18.89° C | 61% | 1009.7 hPa | 0 mm | 0.89 m/s, 217° | 0 W/m² | - |
| 1778029459 | 19.44° C | 60% | 1009.6 hPa | 0 mm | 0.89 m/s, 248° | 0 W/m² | - |
| 1778028859 | 19.44° C | 60% | 1009.6 hPa | 0 mm | 0.89 m/s, 0° | 0 W/m² | - |
| 1778028255 | 20° C | 59% | 1009.5 hPa | 0 mm | 0.89 m/s, 227° | 0 W/m² | - |
| 1778027656 | 20° C | 58% | 1009.3 hPa | 0 mm | 0.89 m/s, 243° | 0 W/m² | - |
| 1778027053 | 20.56° C | 58% | 1009.3 hPa | 0 mm | 0.89 m/s, 233° | 0 W/m² | - |
| 1778026455 | 20.56° C | 57% | 1009.1 hPa | 0 mm | 0.89 m/s, 220° | 0 W/m² | - |
| 1778025854 | 20.56° C | 56% | 1008.8 hPa | 0 mm | 0.89 m/s, 256° | 0 W/m² | - |
| 1778025254 | 21.11° C | 56% | 1008.6 hPa | 0 mm | 0.89 m/s, 216° | 0 W/m² | - |
| 1778024654 | 21.11° C | 55% | 1008.5 hPa | 0 mm | 0.89 m/s, 221° | 2 W/m² | - |
| 1778024052 | 21.67° C | 54% | 1008.4 hPa | 0 mm | 1.79 m/s, 223° | 6 W/m² | - |
| 1778023451 | 21.67° C | 54% | 1008.2 hPa | 0 mm | 1.34 m/s, 234° | 10 W/m² | - |
| 1778022851 | 22.22° C | 54% | 1008 hPa | 0 mm | 1.34 m/s, 245° | 20 W/m² | - |
* Rain latest hour (hover to see other rain measurements)
** Current wind speed in m/s (hover to see current wind gust speed)